Regional Weather Roundup
Issued by NWS Cleveland, OH

Home | Current Version | Previous Version | Text Only | Print | Product List | Glossary Off
Versions: 1 2 3 4 5 6 7 8 9 10 11 12 13 14 15 16 17 18 19 20 21 22 23 24 25 26 27 28 29 30 31 32 33 34 35 36 37 38 39 40 41 42 43 44 45 46 47 48 49 50

000
ASUS41 KCLE 191110
RWRCLE
OHIO REGIONAL WEATHER ROUNDUP
NATIONAL WEATHER SERVICE CLEVELAND, OH
600 AM EST FRI DEC 19 2014

NOTE: "FAIR" INDICATES FEW OR NO CLOUDS BELOW 12,000 FEET WITH NO
SIGNIFICANT WEATHER AND/OR OBSTRUCTIONS TO VISIBILITY.

OHZ001>008-015>018-024>027-034-035-043-044-191200-
   NORTHWEST OHIO

CITY           SKY/WX    TMP DP  RH WIND       PRES   REMARKS
DEFIANCE       CLOUDY    29  24  82 W3        30.24R
FINDLAY        CLOUDY    29  24  82 W10       30.22R WCI  20
TOLEDO EXPRESS CLOUDY    29  25  85 W5        30.22R FOG     WCI  24
TOLEDO EXEC    CLOUDY    30  25  81 W8        30.23R WCI  22
LIMA           CLOUDY    30  22  72 W8        30.23R WCI  22
$$

OHZ009>014-019>023-028>033-038-089-191200-
   NORTHEAST OHIO

CITY           SKY/WX    TMP DP  RH WIND       PRES   REMARKS
CLE-HOPKINS    FRZ DRZL  29  25  85 NW7       30.21R WCI  22
CLE-LAKEFRONT  CLOUDY    32  25  75 NW16      30.18S WCI  21
CUY CO. ARPT   NOT AVBL
LORAIN-ELYRIA  CLOUDY    29  26  89 N7        30.20R WCI  22
ASHTABULA      CLOUDY    30  23  75 NW9       30.15S WCI  22
AKRON-CANTON   LGT SNOW  29  25  85 W7        30.16R FOG     WCI  22
WOOSTER        CLOUDY    28  25  88 W9        30.18R WCI  19
MANSFIELD      CLOUDY    27  25  92 W8        30.18R FOG     WCI  19
YOUNGSTOWN     FLURRIES  29  26  89 NW9       30.14R WCI  20
$$

OHZ042-051>053-060>062-070>072-077>081-191200-
  SOUTHWEST OHIO

CITY           SKY/WX    TMP DP  RH WIND       PRES   REMARKS
CINC-COVINGTON CLOUDY    27  19  72 NW6       30.25R WCI  20
CINC-LUNKEN    CLOUDY    27  22  81 N5        30.29R WCI  22
HAMILTON       CLOUDY    28  22  78 N3        30.27R
DAYTON         CLOUDY    27  20  75 W8        30.24R WCI  19
WRIGHT-PAT AFB CLOUDY    27  21  76 W3        30.24R
DAYTON GENERAL CLOUDY    27  20  75 NW8       30.23R WCI  19
WILMINGTON     CLOUDY    26  19  74 N6        30.23R WCI  19
$$

OHZ036-037-039>041-045>050-054>059-063>069-073>076-082>088-191200-
  CENTRAL AND SOUTHEAST OHIO

CITY           SKY/WX    TMP DP  RH WIND       PRES   REMARKS
COLUMBUS       CLOUDY    28  21  75 W5        30.22S WCI  23
OSU AIRPORT    CLOUDY    28  22  78 W6        30.22R WCI  22
BOLTON FIELD   CLOUDY    28  22  81 W3        30.23R
RICKENBACK AFB CLOUDY    28  21  74 NW3       30.23R
NEWARK         CLOUDY    29  22  75 CALM      30.21R
MARION         CLOUDY    27  23  85 W7        30.22R FOG     WCI  19
LANCASTER      CLOUDY    29  22  75 NW5       30.23R WCI  24
ZANESVILLE     CLOUDY    28  22  78 W5        30.21R WCI  23
NEW PHILLY     CLOUDY    30  25  81 W3        30.20R
$$


USA.gov is the U.S. government's official web portal to all federal, state and local government web resources and services.